UAE607 OMDB-OPKC

Flight info

Callsign UAE607
Flight time 1h 38m
Altitude 41000
Route IVURO1G IVURO M428 TARBO Z440 DAMUM B524 ALPOR G216 LAKIV LAKIV1B
Aircraft B772/H-SDE2E3FGHIJ5LORVWXY/LB1D1

Departure

Time 2026-04-25 22:30
Airport Dubai International Airport (OMDB)

Arrival

Time 2026-04-26 00:08
Airport Jinnah International Airport (OPKC)
Time Latitude Longitude Altitude Speed Heading
2026-04-25 22:20 25.25452 55.35279 26 ft 0 kts 212°
2026-04-25 22:21 25.25468 55.35290 31 ft 4 kts 211°
2026-04-25 22:21 25.25491 55.35306 31 ft 4 kts 208°
2026-04-25 22:22 25.25516 55.35316 30 ft 4 kts 187°
2026-04-25 22:22 25.25541 55.35315 31 ft 4 kts 151°
2026-04-25 22:22 25.25554 55.35304 30 ft 0 kts 121°
2026-04-25 22:25 25.25547 55.35326 27 ft 10 kts 112°
2026-04-25 22:25 25.25502 55.35403 28 ft 12 kts 118°
2026-04-25 22:26 25.25482 55.35491 29 ft 12 kts 95°
2026-04-25 22:26 25.25477 55.35578 28 ft 9 kts 95°
2026-04-25 22:26 25.25463 55.35643 27 ft 9 kts 110°
2026-04-25 22:26 25.25442 55.35707 30 ft 9 kts 90°
2026-04-25 22:27 25.25480 55.35752 30 ft 6 kts 31°
2026-04-25 22:27 25.25507 55.35770 29 ft 3 kts 27°
2026-04-25 22:27 25.25515 55.35774 28 ft 1 kts 26°
2026-04-25 22:27 25.25534 55.35787 28 ft 0 kts 31°
2026-04-25 22:28 25.25537 55.35788 29 ft 3 kts 32°
2026-04-25 22:28 25.25585 55.35827 31 ft 10 kts 44°
2026-04-25 22:28 25.25587 55.35891 29 ft 7 kts 120°
2026-04-25 22:28 25.25584 55.35896 30 ft 0 kts 122°
2026-04-25 22:29 25.25567 55.35926 29 ft 20 kts 122°
2026-04-25 22:29 25.25359 55.36300 32 ft 97 kts 121°
2026-04-25 22:30 25.24294 55.38198 793 ft 162 kts 122°
2026-04-25 22:30 25.23685 55.39298 1449 ft 173 kts 118°
2026-04-25 22:30 25.23065 55.40448 2050 ft 182 kts 118°
2026-04-25 22:30 25.22612 55.41281 2205 ft 198 kts 119°
2026-04-25 22:31 25.21569 55.43165 2537 ft 231 kts 120°
2026-04-25 22:31 25.20707 55.44715 3006 ft 242 kts 120°
2026-04-25 22:31 25.20051 55.46405 3534 ft 243 kts 95°
2026-04-25 22:31 25.19988 55.48267 4138 ft 244 kts 88°
2026-04-25 22:32 25.19976 55.50139 4919 ft 244 kts 89°
2026-04-25 22:32 25.19943 55.52018 5603 ft 247 kts 90°
2026-04-25 22:32 25.19899 55.53921 6291 ft 249 kts 90°
2026-04-25 22:32 25.19849 55.55848 6916 ft 253 kts 91°
2026-04-25 22:33 25.19796 55.57803 7512 ft 257 kts 91°
2026-04-25 22:33 25.19754 55.59791 8082 ft 259 kts 86°
2026-04-25 22:33 25.20272 55.61699 8474 ft 269 kts 55°
2026-04-25 22:33 25.21606 55.63225 8616 ft 285 kts 39°
2026-04-25 22:34 25.23165 55.64663 9052 ft 298 kts 38°
2026-04-25 22:34 25.24783 55.66150 9599 ft 306 kts 39°
2026-04-25 22:34 25.26405 55.67649 10175 ft 311 kts 39°
2026-04-25 22:34 25.28113 55.69236 10433 ft 333 kts 39°
2026-04-25 22:35 25.29919 55.70927 10931 ft 346 kts 39°
2026-04-25 22:35 25.31774 55.72669 11657 ft 354 kts 39°
2026-04-25 22:35 25.33652 55.74445 12523 ft 355 kts 40°
2026-04-25 22:35 25.35201 55.76588 13188 ft 365 kts 62°
2026-04-25 22:36 25.35932 55.79282 13980 ft 366 kts 83°
2026-04-25 22:36 25.36201 55.82093 14813 ft 370 kts 85°
2026-04-25 22:36 25.36454 55.84952 15609 ft 377 kts 85°
2026-04-25 22:36 25.36732 55.87858 16394 ft 384 kts 85°
2026-04-25 22:37 25.37032 55.90815 17181 ft 390 kts 85°
2026-04-25 22:37 25.37301 55.93813 17927 ft 395 kts 90°
2026-04-25 22:37 25.36964 55.96818 18435 ft 397 kts 106°
2026-04-25 22:37 25.36262 55.99790 19071 ft 403 kts 107°
2026-04-25 22:38 25.35550 56.02794 19919 ft 404 kts 107°
2026-04-25 22:38 25.34863 56.05814 20758 ft 407 kts 106°
2026-04-25 22:38 25.34193 56.08875 21524 ft 412 kts 105°
2026-04-25 22:38 25.33527 56.11977 22208 ft 418 kts 105°
2026-04-25 22:39 25.32855 56.15116 22948 ft 423 kts 106°
2026-04-25 22:39 25.32036 56.18248 23646 ft 425 kts 111°
2026-04-25 22:39 25.31016 56.21331 24247 ft 429 kts 114°
2026-04-25 22:39 25.29933 56.24422 24856 ft 434 kts 114°
2026-04-25 22:40 25.28850 56.27552 25485 ft 438 kts 113°
2026-04-25 22:40 25.27786 56.30724 26069 ft 443 kts 112°
2026-04-25 22:40 25.26728 56.33942 26648 ft 448 kts 112°
2026-04-25 22:40 25.25668 56.37186 27239 ft 452 kts 112°
2026-04-25 22:41 25.24594 56.40458 27916 ft 453 kts 112°
2026-04-25 22:41 25.23512 56.43741 28499 ft 457 kts 112°
2026-04-25 22:41 25.22417 56.47056 29008 ft 462 kts 112°
2026-04-25 22:41 25.21307 56.50414 29500 ft 467 kts 112°
2026-04-25 22:42 25.20190 56.53794 29979 ft 471 kts 112°
2026-04-25 22:42 25.19060 56.57209 30390 ft 475 kts 112°
2026-04-25 22:42 25.17892 56.60633 30841 ft 477 kts 114°
2026-04-25 22:42 25.16653 56.63989 31243 ft 480 kts 115°
2026-04-25 22:43 25.15347 56.67393 31628 ft 483 kts 115°
2026-04-25 22:43 25.14021 56.70813 32001 ft 487 kts 115°
2026-04-25 22:43 25.12689 56.74260 32361 ft 490 kts 115°
2026-04-25 22:43 25.11354 56.77737 32733 ft 493 kts 115°
2026-04-25 22:44 25.10024 56.81228 33103 ft 495 kts 114°
2026-04-25 22:44 25.08688 56.84747 33462 ft 498 kts 114°
2026-04-25 22:44 25.07352 56.88275 33877 ft 499 kts 114°
2026-04-25 22:44 25.06012 56.91814 34167 ft 502 kts 114°
2026-04-25 22:45 25.04659 56.95384 34381 ft 507 kts 114°
2026-04-25 22:45 25.03293 56.98984 34586 ft 511 kts 114°
2026-04-25 22:45 25.02433 57.01246 34730 ft 513 kts 114°
2026-04-25 22:45 25.00581 57.06115 35061 ft 516 kts 114°
2026-04-25 22:46 24.99660 57.08536 35214 ft 518 kts 113°
2026-04-25 22:46 24.98259 57.12211 35457 ft 521 kts 113°
2026-04-25 22:46 24.96855 57.15893 35715 ft 523 kts 113°
2026-04-25 22:46 24.95442 57.19592 36010 ft 523 kts 113°
2026-04-25 22:47 24.94029 57.23291 36323 ft 524 kts 112°
2026-04-25 22:47 24.92616 57.26987 36660 ft 524 kts 112°
2026-04-25 22:47 24.91200 57.30687 36925 ft 525 kts 112°
2026-04-25 22:47 24.89780 57.34394 37186 ft 527 kts 112°
2026-04-25 22:48 24.88352 57.38117 37453 ft 528 kts 112°
2026-04-25 22:48 24.86926 57.41833 37839 ft 526 kts 112°
2026-04-25 22:48 24.85502 57.45541 38169 ft 526 kts 111°
2026-04-25 22:48 24.84075 57.49253 38430 ft 527 kts 111°
2026-04-25 22:49 24.82643 57.52975 38642 ft 528 kts 111°
2026-04-25 22:49 24.81211 57.56694 38918 ft 527 kts 111°
2026-04-25 22:49 24.79783 57.60397 39266 ft 524 kts 111°
2026-04-25 22:49 24.78363 57.64078 39603 ft 521 kts 111°
2026-04-25 22:50 24.76951 57.67738 39975 ft 517 kts 111°
2026-04-25 22:50 24.75550 57.71365 40385 ft 513 kts 111°
2026-04-25 22:50 24.74225 57.74948 40638 ft 512 kts 108°
2026-04-25 22:50 24.73146 57.78732 40760 ft 513 kts 103°
2026-04-25 22:51 24.71882 57.86383 40834 ft 512 kts 95°
2026-04-25 22:51 24.70968 57.94120 40839 ft 507 kts 95°
2026-04-25 22:52 24.70064 58.01649 40833 ft 504 kts 95°
2026-04-25 22:52 24.69107 58.09273 40836 ft 503 kts 96°
2026-04-25 22:53 24.68130 58.16896 40836 ft 504 kts 96°
2026-04-25 22:53 24.67147 58.24537 40842 ft 505 kts 96°
2026-04-25 22:54 24.66159 58.32198 40834 ft 506 kts 96°
2026-04-25 22:54 24.65166 58.39870 40830 ft 507 kts 96°
2026-04-25 22:55 24.64169 58.47543 40831 ft 507 kts 96°
2026-04-25 22:55 24.63167 58.55221 40830 ft 507 kts 96°
2026-04-25 22:56 24.62163 58.62884 40826 ft 506 kts 96°
2026-04-25 22:56 24.61156 58.70540 40823 ft 506 kts 96°
2026-04-25 22:57 24.60148 58.78180 40824 ft 505 kts 96°
2026-04-25 22:57 24.59135 58.85818 40824 ft 505 kts 96°
2026-04-25 22:58 24.58128 58.93391 40825 ft 505 kts 96°
2026-04-25 22:58 24.57127 59.00885 40824 ft 505 kts 96°
2026-04-25 22:59 24.56104 59.08511 40834 ft 505 kts 96°
2026-04-25 22:59 24.55077 59.16149 40830 ft 506 kts 96°
2026-04-25 23:00 24.53955 59.23782 40828 ft 508 kts 100°
2026-04-25 23:00 24.52367 59.31340 40832 ft 508 kts 102°
2026-04-25 23:01 24.50709 59.38887 40828 ft 508 kts 102°
2026-04-25 23:01 24.49078 59.46420 40824 ft 507 kts 102°
2026-04-25 23:02 24.47466 59.53951 40822 ft 506 kts 102°
2026-04-25 23:02 24.45858 59.61465 40831 ft 505 kts 102°
2026-04-25 23:03 24.44248 59.68965 40819 ft 505 kts 102°
2026-04-25 23:03 24.42633 59.76454 40818 ft 504 kts 102°
2026-04-25 23:04 24.41018 59.83931 40822 ft 504 kts 102°
2026-04-25 23:04 24.39400 59.91405 40829 ft 504 kts 102°
2026-04-25 23:05 24.37776 59.98884 40822 ft 504 kts 102°
2026-04-25 23:05 24.36180 60.06222 40822 ft 504 kts 102°
2026-04-25 23:06 24.34546 60.13698 40825 ft 504 kts 102°
2026-04-25 23:06 24.32900 60.21180 40826 ft 505 kts 103°
2026-04-25 23:07 24.31262 60.28608 40820 ft 505 kts 103°
2026-04-25 23:07 24.29611 60.36081 40819 ft 504 kts 102°
2026-04-25 23:08 24.27961 60.43541 40823 ft 503 kts 103°
2026-04-25 23:08 24.26309 60.50987 40826 ft 502 kts 103°
2026-04-25 23:09 24.24655 60.58422 40824 ft 502 kts 103°
2026-04-25 23:09 24.23000 60.65845 40824 ft 501 kts 103°
2026-04-25 23:10 24.21344 60.73260 40824 ft 501 kts 103°
2026-04-25 23:10 24.19686 60.80664 40829 ft 500 kts 103°
2026-04-25 23:11 24.18026 60.88064 40819 ft 500 kts 103°
2026-04-25 23:11 24.16364 60.95457 40818 ft 500 kts 103°
2026-04-25 23:12 24.14730 61.02712 40821 ft 499 kts 103°
2026-04-25 23:12 24.13076 61.10041 40832 ft 499 kts 103°
2026-04-25 23:13 24.11408 61.17412 40827 ft 499 kts 103°
2026-04-25 23:13 24.09737 61.24782 40825 ft 498 kts 103°
2026-04-25 23:14 24.08479 61.32212 40820 ft 497 kts 92°
2026-04-25 23:14 24.08636 61.39736 40834 ft 494 kts 80°
2026-04-25 23:15 24.09753 61.47139 40836 ft 493 kts 78°
2026-04-25 23:15 24.10923 61.54544 40832 ft 494 kts 79°
2026-04-25 23:16 24.12032 61.61964 40828 ft 494 kts 79°
2026-04-25 23:16 24.13114 61.69392 40827 ft 494 kts 79°
2026-04-25 23:17 24.14196 61.76825 40827 ft 494 kts 79°
2026-04-25 23:17 24.15259 61.84264 40827 ft 494 kts 80°
2026-04-25 23:18 24.16266 61.91711 40832 ft 495 kts 80°
2026-04-25 23:18 24.17264 61.99165 40820 ft 495 kts 80°
2026-04-25 23:19 24.18247 62.06481 40825 ft 494 kts 80°
2026-04-25 23:19 24.19242 62.13878 40822 ft 494 kts 80°
2026-04-25 23:20 24.20241 62.21327 40826 ft 494 kts 80°
2026-04-25 23:20 24.21235 62.28767 40828 ft 494 kts 80°
2026-04-25 23:21 24.22226 62.36218 40822 ft 494 kts 80°
2026-04-25 23:21 24.23213 62.43666 40822 ft 494 kts 80°
2026-04-25 23:22 24.24196 62.51115 40820 ft 494 kts 80°
2026-04-25 23:23 24.25665 62.62299 40821 ft 494 kts 80°
2026-04-25 23:23 24.26639 62.69750 40816 ft 494 kts 81°
2026-04-25 23:24 24.27609 62.77206 40821 ft 494 kts 81°
2026-04-25 23:24 24.28576 62.84658 40821 ft 494 kts 81°
2026-04-25 23:25 24.29540 62.92117 40819 ft 494 kts 81°
2026-04-25 23:25 24.30499 62.99569 40818 ft 494 kts 81°
2026-04-25 23:26 24.31437 63.06887 40816 ft 494 kts 81°
2026-04-25 23:26 24.32388 63.14341 40816 ft 494 kts 81°
2026-04-25 23:27 24.33330 63.21745 40820 ft 493 kts 81°
2026-04-25 23:27 24.34273 63.29188 40817 ft 492 kts 81°
2026-04-25 23:28 24.35211 63.36623 40824 ft 492 kts 81°
2026-04-25 23:28 24.36144 63.44052 40826 ft 492 kts 81°
2026-04-25 23:29 24.37074 63.51481 40822 ft 492 kts 81°
2026-04-25 23:29 24.38000 63.58911 40819 ft 492 kts 81°
2026-04-25 23:30 24.38923 63.66341 40819 ft 492 kts 81°
2026-04-25 23:30 24.39842 63.73779 40824 ft 492 kts 81°
2026-04-25 23:31 24.40759 63.81221 40821 ft 492 kts 81°
2026-04-25 23:31 24.41671 63.88665 40818 ft 492 kts 81°
2026-04-25 23:32 24.42581 63.96113 40824 ft 492 kts 82°
2026-04-25 23:32 24.43470 64.03422 40818 ft 492 kts 82°
2026-04-25 23:33 24.44372 64.10874 40817 ft 493 kts 82°
2026-04-25 23:33 24.45271 64.18328 40815 ft 493 kts 82°
2026-04-25 23:34 24.46166 64.25775 40819 ft 493 kts 82°
2026-04-25 23:34 24.47051 64.33178 40816 ft 493 kts 82°
2026-04-25 23:35 24.47939 64.40633 40825 ft 493 kts 82°
2026-04-25 23:35 24.48823 64.48090 40825 ft 493 kts 82°
2026-04-25 23:36 24.49703 64.55547 40818 ft 492 kts 82°
2026-04-25 23:36 24.50438 64.61796 40812 ft 492 kts 82°
2026-04-25 23:37 24.51311 64.69252 40812 ft 492 kts 82°
2026-04-25 23:37 24.52182 64.76712 40813 ft 492 kts 82°
2026-04-25 23:38 24.53043 64.84171 40739 ft 493 kts 83°
2026-04-25 23:38 24.53406 64.87945 39874 ft 501 kts 84°
2026-04-25 23:38 24.53698 64.91707 39351 ft 498 kts 85°
2026-04-25 23:38 24.53964 64.95480 38942 ft 493 kts 85°
2026-04-25 23:39 24.54228 64.99262 38513 ft 488 kts 85°
2026-04-25 23:39 24.54483 65.02814 38039 ft 483 kts 85°
2026-04-25 23:39 24.54754 65.06472 37603 ft 480 kts 85°
2026-04-25 23:39 24.55040 65.10146 37198 ft 486 kts 85°
2026-04-25 23:40 24.55340 65.13863 36780 ft 491 kts 84°
2026-04-25 23:40 24.55643 65.17625 36358 ft 497 kts 84°
2026-04-25 23:40 24.55942 65.21374 35946 ft 502 kts 84°
2026-04-25 23:40 24.56242 65.25213 35498 ft 506 kts 84°
2026-04-25 23:41 24.56541 65.29082 35034 ft 511 kts 84°
2026-04-25 23:41 24.56840 65.32990 34570 ft 515 kts 84°
2026-04-25 23:41 24.57137 65.36913 34249 ft 515 kts 84°
2026-04-25 23:41 24.57429 65.40816 33964 ft 509 kts 84°
2026-04-25 23:42 24.57708 65.44663 33249 ft 502 kts 84°
2026-04-25 23:42 24.57977 65.48429 32584 ft 488 kts 85°
2026-04-25 23:42 24.58251 65.52150 32120 ft 495 kts 84°
2026-04-25 23:42 24.58530 65.55977 31637 ft 505 kts 84°
2026-04-25 23:43 24.58807 65.59796 31138 ft 498 kts 84°
2026-04-25 23:43 24.59080 65.63553 30666 ft 487 kts 85°
2026-04-25 23:43 24.59343 65.67167 30195 ft 463 kts 85°
2026-04-25 23:43 24.59594 65.70606 29739 ft 441 kts 84°
2026-04-25 23:44 24.59834 65.73886 29255 ft 421 kts 85°
2026-04-25 23:44 24.60064 65.77023 28815 ft 404 kts 85°
2026-04-25 23:44 24.60287 65.80084 28417 ft 400 kts 85°
2026-04-25 23:44 24.60508 65.83121 27998 ft 398 kts 85°
2026-04-25 23:45 24.60727 65.86140 27573 ft 395 kts 85°
2026-04-25 23:45 24.60945 65.89146 27156 ft 393 kts 85°
2026-04-25 23:45 24.61161 65.92139 26756 ft 392 kts 85°
2026-04-25 23:45 24.61375 65.95113 26352 ft 390 kts 85°
2026-04-25 23:46 24.61588 65.98076 25952 ft 389 kts 85°
2026-04-25 23:46 24.61792 66.00928 25562 ft 388 kts 85°
2026-04-25 23:46 24.62002 66.03876 25163 ft 387 kts 85°
2026-04-25 23:46 24.62210 66.06803 24853 ft 382 kts 85°
2026-04-25 23:47 24.62413 66.09664 24439 ft 370 kts 85°
2026-04-25 23:47 24.62610 66.12459 23778 ft 364 kts 85°
2026-04-25 23:47 24.62806 66.15233 22948 ft 365 kts 85°
2026-04-25 23:47 24.63000 66.17990 22612 ft 361 kts 85°
2026-04-25 23:48 24.63193 66.20727 22213 ft 358 kts 85°
2026-04-25 23:48 24.63384 66.23446 21832 ft 355 kts 85°
2026-04-25 23:48 24.63573 66.26145 21447 ft 353 kts 85°
2026-04-25 23:48 24.63759 66.28828 21076 ft 351 kts 85°
2026-04-25 23:49 24.63942 66.31454 20712 ft 349 kts 85°
2026-04-25 23:49 24.64125 66.34107 20339 ft 347 kts 85°
2026-04-25 23:49 24.64307 66.36741 19968 ft 345 kts 85°
2026-04-25 23:49 24.64488 66.39364 19589 ft 343 kts 85°
2026-04-25 23:50 24.64667 66.41974 19220 ft 342 kts 85°
2026-04-25 23:50 24.64846 66.44578 18839 ft 341 kts 85°
2026-04-25 23:50 24.65023 66.47173 18444 ft 340 kts 85°
2026-04-25 23:50 24.65200 66.49764 18080 ft 340 kts 85°
2026-04-25 23:51 24.65372 66.52428 17662 ft 360 kts 85°
2026-04-25 23:51 24.65550 66.55257 17235 ft 381 kts 85°
2026-04-25 23:51 24.65740 66.58201 16765 ft 382 kts 85°
2026-04-25 23:51 24.65935 66.61039 16323 ft 362 kts 85°
2026-04-25 23:52 24.66123 66.63721 15912 ft 342 kts 85°
2026-04-25 23:52 24.66302 66.66275 15546 ft 330 kts 85°
2026-04-25 23:52 24.66472 66.68739 15169 ft 319 kts 85°
2026-04-25 23:52 24.66638 66.71161 14817 ft 316 kts 85°
2026-04-25 23:53 24.66801 66.73562 14459 ft 314 kts 85°
2026-04-25 23:53 24.66962 66.75952 14093 ft 312 kts 85°
2026-04-25 23:53 24.67121 66.78328 13727 ft 311 kts 85°
2026-04-25 23:53 24.67279 66.80697 13335 ft 310 kts 85°
2026-04-25 23:54 24.67436 66.83049 12945 ft 308 kts 85°
2026-04-25 23:54 24.67590 66.85386 12575 ft 305 kts 85°
2026-04-25 23:54 24.67743 66.87704 12212 ft 303 kts 85°
2026-04-25 23:54 24.67895 66.90004 11865 ft 300 kts 85°
2026-04-25 23:55 24.68045 66.92286 11498 ft 298 kts 85°
2026-04-25 23:55 24.68193 66.94553 11148 ft 297 kts 85°
2026-04-25 23:55 24.68342 66.96811 10791 ft 295 kts 85°
2026-04-25 23:55 24.68488 66.99056 10438 ft 294 kts 85°
2026-04-25 23:56 24.68626 67.01176 10108 ft 293 kts 85°
2026-04-25 23:56 24.68769 67.03382 9927 ft 284 kts 85°
2026-04-25 23:56 24.69179 67.05432 9741 ft 270 kts 64°
2026-04-25 23:56 24.70097 67.07205 9409 ft 266 kts 59°
2026-04-25 23:57 24.71055 67.08945 9076 ft 266 kts 58°
2026-04-25 23:57 24.72012 67.10686 8770 ft 265 kts 58°
2026-04-25 23:57 24.72962 67.12419 8466 ft 264 kts 58°
2026-04-25 23:57 24.73908 67.14152 8154 ft 264 kts 58°
2026-04-25 23:58 24.74848 67.15881 7858 ft 263 kts 58°
2026-04-25 23:58 24.75786 67.17608 7546 ft 263 kts 58°
2026-04-25 23:58 24.76722 67.19337 7236 ft 263 kts 58°
2026-04-25 23:58 24.77658 67.21067 6937 ft 263 kts 58°
2026-04-25 23:59 24.78592 67.22796 6635 ft 263 kts 58°
2026-04-25 23:59 24.79527 67.24527 6321 ft 263 kts 58°
2026-04-25 23:59 24.80458 67.26254 6004 ft 262 kts 58°
2026-04-25 23:59 24.81386 67.27976 5702 ft 261 kts 58°
2026-04-26 00:00 24.82311 67.29691 5394 ft 260 kts 58°
2026-04-26 00:00 24.83231 67.31399 5138 ft 257 kts 58°
2026-04-26 00:00 24.84136 67.33080 4808 ft 252 kts 57°
2026-04-26 00:00 24.85008 67.34702 4518 ft 241 kts 57°
2026-04-26 00:01 24.85842 67.36254 4234 ft 230 kts 57°
2026-04-26 00:01 24.86643 67.37744 4085 ft 219 kts 56°
2026-04-26 00:01 24.87513 67.39021 3934 ft 203 kts 33°
2026-04-26 00:01 24.88766 67.39542 3734 ft 186 kts
2026-04-26 00:02 24.89979 67.39444 3634 ft 167 kts 342°
2026-04-26 00:02 24.91102 67.39121 3585 ft 173 kts 341°
2026-04-26 00:02 24.92288 67.38762 3520 ft 179 kts 341°
2026-04-26 00:02 24.93468 67.38388 3421 ft 176 kts 334°
2026-04-26 00:03 24.94419 67.37601 3362 ft 166 kts 308°
2026-04-26 00:03 24.95067 67.36540 3278 ft 168 kts 301°
2026-04-26 00:03 24.95408 67.35319 3088 ft 170 kts 268°
2026-04-26 00:03 24.95230 67.34080 2911 ft 164 kts 263°
2026-04-26 00:04 24.95003 67.32866 2704 ft 160 kts 261°
2026-04-26 00:04 24.94732 67.31690 2518 ft 156 kts 259°
2026-04-26 00:04 24.94454 67.30564 2312 ft 148 kts 259°
2026-04-26 00:04 24.94186 67.29492 2141 ft 144 kts 260°
2026-04-26 00:05 24.93919 67.28426 1965 ft 144 kts 259°
2026-04-26 00:05 24.93651 67.27362 1787 ft 143 kts 259°
2026-04-26 00:05 24.93386 67.26309 1615 ft 143 kts 258°
2026-04-26 00:05 24.93120 67.25252 1411 ft 143 kts 258°
2026-04-26 00:06 24.92851 67.24187 1245 ft 146 kts 258°
2026-04-26 00:06 24.92580 67.23104 1070 ft 145 kts 257°
2026-04-26 00:06 24.92321 67.22079 902 ft 133 kts 256°
2026-04-26 00:06 24.92081 67.21127 730 ft 126 kts 256°
2026-04-26 00:07 24.91854 67.20206 595 ft 124 kts 255°
2026-04-26 00:07 24.91620 67.19280 412 ft 124 kts 254°
2026-04-26 00:07 24.91384 67.18357 243 ft 125 kts 255°
2026-04-26 00:07 24.91157 67.17456 114 ft 117 kts 254°
2026-04-26 00:08 24.90968 67.16714 109 ft 81 kts 254°
2026-04-26 00:08 24.90859 67.16282 107 ft 47 kts 255°
2026-04-26 00:08 24.90788 67.16005 108 ft 25 kts 254°
2026-04-26 00:08 24.90747 67.15856 109 ft 18 kts 247°
2026-04-26 00:09 24.90672 67.15749 110 ft 16 kts 216°
2026-04-26 00:09 24.90571 67.15709 109 ft 16 kts 178°
2026-04-26 00:09 24.90529 67.15716 109 ft 4 kts 167°
2026-04-26 00:09 24.90503 67.15723 109 ft 4 kts 163°
2026-04-26 00:10 24.90477 67.15732 109 ft 4 kts 163°
2026-04-26 00:10 24.90452 67.15741 109 ft 4 kts 163°
2026-04-26 00:10 24.90426 67.15748 109 ft 4 kts 167°
2026-04-26 00:10 24.90385 67.15758 108 ft 10 kts 167°
2026-04-26 00:11 24.90333 67.15773 107 ft 9 kts 164°
2026-04-26 00:11 24.90280 67.15786 107 ft 7 kts 175°
2026-04-26 00:11 24.90240 67.15761 109 ft 7 kts 243°
2026-04-26 00:11 24.90233 67.15736 107 ft 0 kts 255°
2026-04-26 00:14 24.90233 67.15735 107 ft 1 kts 255°
2026-04-26 00:15 24.90222 67.15689 106 ft 11 kts 255°
2026-04-26 00:15 24.90192 67.15574 107 ft 20 kts 255°
2026-04-26 00:15 24.90154 67.15424 108 ft 20 kts 253°
2026-04-26 00:15 24.90116 67.15274 106 ft 20 kts 256°
2026-04-26 00:16 24.90083 67.15136 108 ft 16 kts 254°
2026-04-26 00:16 24.90032 67.15072 108 ft 10 kts 167°
2026-04-26 00:16 24.90015 67.15080 106 ft 0 kts 152°
2026-04-26 00:16 24.90013 67.15084 106 ft 4 kts 139°
2026-04-26 00:17 24.89961 67.15097 108 ft 11 kts 206°
2026-04-26 00:17 24.89895 67.15048 107 ft 11 kts 217°
2026-04-26 00:17 24.89844 67.14981 108 ft 11 kts 223°
2026-04-26 00:17 24.89778 67.14931 108 ft 11 kts 214°
2026-04-26 00:18 24.89747 67.14859 105 ft 9 kts 279°
2026-04-26 00:18 24.89789 67.14812 106 ft 8 kts 324°
2026-04-26 00:18 24.89808 67.14796 106 ft 0 kts 323°
2026-04-26 01:13 24.89807 67.14796 106 ft 0 kts 323°
2026-04-26 01:28 24.89807 67.14797 106 ft 0 kts 323°
2026-04-26 03:09 24.89806 67.14797 106 ft 0 kts 323°
2026-04-26 03:20 24.89794 67.14807 106 ft 4 kts 330°
2026-04-26 03:20 24.89770 67.14819 104 ft 4 kts 349°
2026-04-26 03:20 24.89744 67.14819 103 ft 4 kts 22°
2026-04-26 03:21 24.89729 67.14805 105 ft 1 kts 75°
2026-04-26 03:23 24.89729 67.14807 105 ft 2 kts 75°
2026-04-26 03:23 24.89741 67.14853 105 ft 8 kts 74°
2026-04-26 03:23 24.89763 67.14911 107 ft 8 kts 57°
2026-04-26 03:24 24.89807 67.14952 108 ft 8 kts 32°
2026-04-26 03:24 24.89852 67.14989 107 ft 8 kts 49°
2026-04-26 03:24 24.89885 67.15040 105 ft 8 kts 46°
2026-04-26 03:24 24.89950 67.15089 107 ft 14 kts 31°
2026-04-26 03:25 24.90030 67.15077 106 ft 12 kts 337°
2026-04-26 03:25 24.90077 67.15124 106 ft 10 kts 68°
2026-04-26 03:25 24.90097 67.15198 108 ft 10 kts 74°
2026-04-26 03:25 24.90116 67.15272 106 ft 10 kts 74°
2026-04-26 03:26 24.90136 67.15346 106 ft 10 kts 73°
2026-04-26 03:26 24.90154 67.15420 107 ft 10 kts 76°
2026-04-26 03:26 24.90171 67.15494 107 ft 10 kts 73°
2026-04-26 03:26 24.90191 67.15567 107 ft 10 kts 73°
2026-04-26 03:27 24.90210 67.15641 108 ft 10 kts 74°
2026-04-26 03:27 24.90228 67.15715 106 ft 10 kts 76°
2026-04-26 03:27 24.90245 67.15787 108 ft 10 kts 75°
2026-04-26 03:27 24.90263 67.15860 106 ft 10 kts 75°
2026-04-26 03:28 24.90281 67.15932 106 ft 10 kts 74°
2026-04-26 03:28 24.90295 67.15986 107 ft 0 kts 74°
2026-04-26 03:28 24.90316 67.16068 106 ft 17 kts 75°
2026-04-26 03:28 24.90347 67.16188 107 ft 16 kts 73°
2026-04-26 03:29 24.90377 67.16307 107 ft 16 kts 73°